Society Hill, SC

1:09 PM EDT on August 24, 2016 (GMT -0400)
Darlington County Jetport

Weather History for KUDG - November, 2013

Change the Weather History Date:

Wednesday, November 6, 2013

  Actual Average (KFLO) Record (KFLO)
Temperature  
Mean Temperature 60 °F 58 °F  
Max Temperature 73 °F 70 °F 84 °F (1959)
Min Temperature 48 °F 46 °F 28 °F (1976)
Degree Days  
Heating Degree Days 4 8  
Month to date heating degree days 43  
Since 1 July heating degree days 160  
Cooling Degree Days 0 1  
Month to date cooling degree days 6  
Year to date cooling degree days 2048  
Growing Degree Days 10 (Base 50)    
Moisture  
Dew Point 51 °F    
Average Humidity 72    
Maximum Humidity 87    
Minimum Humidity 50    
Precipitation  
Precipitation 0.00 in 0.09 in 1.60 in (1963)
Month to date precipitation 0.53  
Year to date precipitation 37.76  
Sea Level Pressure  
Sea Level Pressure 30.28 in    
Wind  
Wind Speed 5 mph (NNE)    
Max Wind Speed 10 mph    
Max Gust Speed -    
Visibility 10 miles    
Events      
T = Trace of Precipitation, MM = Missing Value Source: NWS Daily Summary

Daily Weather History Graph

Daily Weather History Graph

Search for Another Location

Airport or City:

Trip Planner

Search our weather history database for the weather conditions in past years. The results will help you decide how hot, cold, wet, or windy it might be!

Date:

Astronomy

Nov. 06, 2013 Rise Set
Actual Time 6:44 AM EST 5:21 PM EST
Civil Twilight 6:18 AM EST 5:47 PM EST
Nautical Twilight 5:48 AM EST 6:17 PM EST
Astronomical Twilight 5:18 AM EST 6:47 PM EST
Moon 9:54 AM EST (11/6) 8:27 PM EST (11/6)
Length of Visible Light 11h 29m
Length of Day
10h 36m
Waxing Crescent, 13% of the Moon is Illuminated
Nov 6
Waxing Crescent
Nov 10
First Quarter
Nov 17
Full
Nov 25
Last Quarter
Dec 2
New

Hourly Weather History & Observations

Time (EST) Temp. Dew Point Humidity Pressure Visibility Wind Dir Wind Speed Gust Speed Precip Events Conditions
12:15 AM 51.8 °F 44.6 °F 76% 30.41 in 10.0 mi North 3.5 mph - N/A   Clear
12:35 AM 51.8 °F 44.6 °F 76% 30.41 in 10.0 mi North 5.8 mph - N/A   Clear
12:55 AM 51.8 °F 44.6 °F 76% 30.40 in 10.0 mi North 4.6 mph - N/A   Clear
1:15 AM 51.8 °F 44.6 °F 76% 30.40 in 10.0 mi North 4.6 mph - N/A   Clear
1:35 AM 51.8 °F 44.6 °F 76% 30.38 in 10.0 mi North 4.6 mph - N/A   Clear
1:55 AM 51.8 °F 44.6 °F 76% 30.38 in 10.0 mi NNE 4.6 mph - N/A   Clear
2:15 AM 50.0 °F 44.6 °F 82% 30.37 in 10.0 mi NNE 4.6 mph - N/A   Clear
2:35 AM 51.8 °F 44.6 °F 76% 30.37 in 10.0 mi NNE 4.6 mph - N/A   Clear
2:55 AM 50.0 °F 44.6 °F 82% 30.36 in 10.0 mi NNE 4.6 mph - N/A   Clear
3:15 AM 50.0 °F 44.6 °F 82% 30.35 in 10.0 mi North 6.9 mph - N/A   Clear
3:35 AM 50.0 °F 44.6 °F 82% 30.35 in 10.0 mi North 6.9 mph - N/A   Clear
3:55 AM 50.0 °F 44.6 °F 82% 30.35 in 10.0 mi North 5.8 mph - N/A   Clear
4:15 AM 50.0 °F 44.6 °F 82% 30.35 in 10.0 mi North 5.8 mph - N/A   Clear
4:35 AM 50.0 °F 44.6 °F 82% 30.35 in 10.0 mi North 4.6 mph - N/A   Clear
4:55 AM 48.2 °F 44.6 °F 87% 30.35 in 10.0 mi North 4.6 mph - N/A   Clear
5:15 AM 48.2 °F 44.6 °F 87% 30.35 in 10.0 mi North 4.6 mph - N/A   Clear
5:35 AM 48.2 °F 42.8 °F 82% 30.35 in 10.0 mi North 4.6 mph - N/A   Clear
5:55 AM 48.2 °F 44.6 °F 87% 30.35 in 10.0 mi North 4.6 mph - N/A   Clear
6:15 AM 48.2 °F 44.6 °F 87% 30.35 in 10.0 mi North 5.8 mph - N/A   Clear
6:35 AM 48.2 °F 44.6 °F 87% 30.35 in 10.0 mi North 6.9 mph - N/A   Clear
6:55 AM 48.2 °F 44.6 °F 87% 30.35 in 10.0 mi NNE 3.5 mph - N/A   Clear
7:15 AM 48.2 °F 44.6 °F 87% 30.35 in 10.0 mi North 5.8 mph - N/A   Clear
7:35 AM 50.0 °F 44.6 °F 82% 30.35 in 10.0 mi North 5.8 mph - N/A   Scattered Clouds
7:55 AM 51.8 °F 46.4 °F 82% 30.35 in 10.0 mi North 5.8 mph - N/A   Overcast
8:15 AM 51.8 °F 46.4 °F 82% 30.36 in 10.0 mi North 5.8 mph - N/A   Mostly Cloudy
8:35 AM 53.6 °F 48.2 °F 82% 30.35 in 10.0 mi North 6.9 mph - N/A   Overcast
8:55 AM 55.4 °F 48.2 °F 77% 30.35 in 10.0 mi NNE 10.4 mph - N/A   Scattered Clouds
9:15 AM 57.2 °F 48.2 °F 72% 30.35 in 10.0 mi NE 9.2 mph - N/A   Clear
9:35 AM 57.2 °F 48.2 °F 72% 30.35 in 10.0 mi ENE 4.6 mph - N/A   Clear
9:55 AM 59.0 °F 48.2 °F 67% 30.35 in 10.0 mi ENE 5.8 mph - N/A   Clear
10:15 AM 60.8 °F 48.2 °F 63% 30.35 in 10.0 mi NNE 4.6 mph - N/A   Clear
10:35 AM 62.6 °F 50.0 °F 63% 30.34 in 10.0 mi NNE 8.1 mph - N/A   Clear
10:55 AM 64.4 °F 48.2 °F 56% 30.34 in 10.0 mi ENE 6.9 mph - N/A   Mostly Cloudy
11:15 AM 66.2 °F 51.8 °F 60% 30.32 in 10.0 mi NE 6.9 mph - N/A   Mostly Cloudy
11:35 AM 66.2 °F 51.8 °F 60% 30.32 in 10.0 mi ENE 9.2 mph - N/A   Partly Cloudy
11:55 AM 68.0 °F 51.8 °F 56% 30.30 in 10.0 mi NE 9.2 mph - N/A   Clear
12:15 PM 69.8 °F 53.6 °F 56% 30.29 in 10.0 mi ENE 8.1 mph - N/A   Clear
12:35 PM 71.6 °F 53.6 °F 53% 30.28 in 10.0 mi ENE 6.9 mph - N/A   Clear
12:55 PM 71.6 °F 53.6 °F 53% 30.26 in 10.0 mi NNE 6.9 mph - N/A   Clear
1:15 PM 73.4 °F 53.6 °F 50% 30.25 in 10.0 mi ENE 8.1 mph - N/A   Clear
1:35 PM 73.4 °F 53.6 °F 50% 30.24 in 10.0 mi ENE 6.9 mph - N/A   Clear
1:55 PM 73.4 °F 55.4 °F 53% 30.24 in 10.0 mi ENE 6.9 mph - N/A   Scattered Clouds
2:15 PM 73.4 °F 55.4 °F 53% 30.23 in 10.0 mi ESE 5.8 mph - N/A   Mostly Cloudy
2:35 PM 73.4 °F 55.4 °F 53% 30.23 in 10.0 mi East 5.8 mph - N/A   Overcast
2:55 PM 73.4 °F 53.6 °F 50% 30.22 in 10.0 mi ENE 6.9 mph - N/A   Overcast
3:15 PM 73.4 °F 55.4 °F 53% 30.22 in 10.0 mi ENE 6.9 mph - N/A   Overcast
3:35 PM 73.4 °F 55.4 °F 53% 30.21 in 10.0 mi NE 4.6 mph - N/A   Overcast
3:55 PM 73.4 °F 55.4 °F 53% 30.21 in 10.0 mi Calm Calm - N/A   Overcast
4:15 PM 73.4 °F 55.4 °F 53% 30.21 in 10.0 mi Calm Calm - N/A   Mostly Cloudy
4:35 PM 73.4 °F 55.4 °F 53% 30.21 in 10.0 mi NNE 3.5 mph - N/A   Mostly Cloudy
4:55 PM 73.4 °F 55.4 °F 53% 30.20 in 10.0 mi Calm Calm - N/A   Partly Cloudy
5:15 PM 69.8 °F 55.4 °F 60% 30.19 in 10.0 mi North 4.6 mph - N/A   Clear
5:35 PM 64.4 °F 57.2 °F 77% 30.19 in 10.0 mi NNW 3.5 mph - N/A   Clear
5:55 PM 62.6 °F 55.4 °F 77% 30.19 in 10.0 mi NNW 4.6 mph - N/A   Clear
6:15 PM 62.6 °F 55.4 °F 77% 30.19 in 10.0 mi NNW 3.5 mph - N/A   Clear
6:35 PM 62.6 °F 55.4 °F 77% 30.19 in 10.0 mi NNW 4.6 mph - N/A   Clear
6:55 PM 60.8 °F 55.4 °F 82% 30.19 in 10.0 mi NW 3.5 mph - N/A   Mostly Cloudy
7:15 PM 62.6 °F 55.4 °F 77% 30.19 in 10.0 mi Calm Calm - N/A   Overcast
7:35 PM 62.6 °F 55.4 °F 77% 30.19 in 10.0 mi Calm Calm - N/A   Overcast
7:55 PM 62.6 °F 55.4 °F 77% 30.19 in 10.0 mi Calm Calm - N/A   Scattered Clouds
8:15 PM 62.6 °F 55.4 °F 77% 30.18 in 10.0 mi Calm Calm - N/A   Mostly Cloudy
8:35 PM 60.8 °F 55.4 °F 82% 30.18 in 10.0 mi Calm Calm - N/A   Mostly Cloudy
8:55 PM 62.6 °F 55.4 °F 77% 30.17 in 10.0 mi Calm Calm - N/A   Overcast
9:15 PM 60.8 °F 55.4 °F 82% 30.16 in 10.0 mi North 4.6 mph - N/A   Mostly Cloudy
9:35 PM 60.8 °F 55.4 °F 82% 30.16 in 10.0 mi Calm Calm - N/A   Mostly Cloudy
9:55 PM 62.6 °F 55.4 °F 77% 30.16 in 10.0 mi Calm Calm - N/A   Overcast
10:15 PM 62.6 °F 55.4 °F 77% 30.16 in 10.0 mi Calm Calm - N/A   Overcast
10:35 PM 62.6 °F 55.4 °F 77% 30.15 in 10.0 mi ENE 3.5 mph - N/A   Overcast
10:55 PM 62.6 °F 55.4 °F 77% 30.15 in 10.0 mi Calm Calm - N/A   Overcast
11:15 PM 62.6 °F 55.4 °F 77% 30.14 in 10.0 mi Calm Calm - N/A   Overcast
11:35 PM 62.6 °F 57.2 °F 82% 30.13 in 10.0 mi Calm Calm - N/A   Overcast
11:55 PM 62.6 °F 57.2 °F 82% 30.13 in 10.0 mi Calm Calm - N/A   Overcast